Bloomington, IN

12:55 PM EDT on April 25, 2018 (GMT -0400)
Monroe County

Weather History for KBMG - July, 2013

Change the Weather History Date:

Tuesday, July 16, 2013

  Actual Average Record
Temperature  
Mean Temperature 80 °F 74 °F  
Max Temperature 92 °F 84 °F 94 °F (2012)
Min Temperature 67 °F 64 °F 53 °F (2014)
Degree Days  
Heating Degree Days 0 0  
Month to date heating degree days 0 0  
Since 1 June heating degree days 7 15  
Since 1 July heating degree days 0 0  
Cooling Degree Days 15 9  
Month to date cooling degree days 135 144  
Year to date cooling degree days 478 434  
Since 1 June cooling degree days 359 352  
Growing Degree Days 28 (Base 50)    
Moisture  
Dew Point 70 °F    
Average Humidity 75    
Maximum Humidity 100    
Minimum Humidity 49    
Precipitation  
Precipitation 0.00 in 0.21 in 0.01 in (1999)
Month to date precipitation 1.05 2.79  
Year to date precipitation 25.63 27.57  
Sea Level Pressure  
Sea Level Pressure 30.29 in    
Wind  
Wind Speed 1 mph (NNW)    
Max Wind Speed 7 mph    
Max Gust Speed 9 mph    
Visibility 9 miles    
Events      
T = Trace of Precipitation, MM = Missing Value Source: NWS Daily Summary

Daily Weather History Graph

Daily Weather History Graph

Search for Another Location

Airport or City:

Astronomy

Jul. 16, 2013 Rise Set
Actual Time 6:33 AM EDT 9:11 PM EDT
Civil Twilight 6:02 AM EDT 9:42 PM EDT
Nautical Twilight 5:23 AM EDT 10:20 PM EDT
Astronomical Twilight 4:39 AM EDT 11:04 PM EDT
Moon 2:53 PM EDT (7/16) 1:01 AM EDT (7/16)
Length of Visible Light 15h 39m
Length of Day
14h 37m
First Quarter, 56% of the Moon is Illuminated
Jul 16
First Quarter
Jul 22
Full
Jul 29
Last Quarter
Aug 6
New
Aug 14
First Quarter

Hourly Weather History & Observations

Time (EDT) Temp. Heat Index Dew Point Humidity Pressure Visibility Wind Dir Wind Speed Gust Speed Precip Events Conditions
12:53 AM 71.1 °F - 70.0 °F 96% 30.27 in 10.0 mi Calm Calm - N/A   Clear
1:53 AM 70.0 °F - 69.1 °F 97% 30.27 in 10.0 mi Calm Calm - N/A   Clear
2:53 AM 69.1 °F - 68.0 °F 96% 30.27 in 10.0 mi Calm Calm - N/A   Clear
3:53 AM 68.0 °F - 68.0 °F 100% 30.27 in 10.0 mi Calm Calm - N/A   Clear
4:21 AM 68.0 °F - 68.0 °F 100% 30.29 in 1.8 mi Calm Calm - N/A   Clear
4:31 AM 69.8 °F - 66.2 °F 88% 30.28 in 3.0 mi Calm Calm - N/A   Clear
4:53 AM 68.0 °F - 66.9 °F 96% 30.26 in 7.0 mi Calm Calm - N/A   Clear
5:10 AM 68.0 °F - 66.2 °F 94% 30.29 in 2.0 mi Calm Calm - N/A   Clear
5:19 AM 69.8 °F - 68.0 °F 94% 30.29 in 4.0 mi Calm Calm - N/A   Clear
5:53 AM 66.9 °F - 66.9 °F 100% 30.27 in 9.0 mi Calm Calm - N/A   Clear
6:53 AM 68.0 °F - 66.9 °F 96% 30.29 in 8.0 mi Calm Calm - N/A   Clear
7:53 AM 73.0 °F - 71.1 °F 93% 30.30 in 10.0 mi Calm Calm - N/A   Clear
8:53 AM 81.0 °F 84.9 °F 71.1 °F 72% 30.32 in 10.0 mi Calm Calm - N/A   Clear
9:53 AM 84.0 °F 90.2 °F 73.0 °F 69% 30.32 in 10.0 mi Calm Calm - N/A   Clear
10:53 AM 86.0 °F 90.7 °F 70.0 °F 59% 30.32 in 10.0 mi WSW 4.6 mph - N/A   Scattered Clouds
11:53 AM 87.1 °F 91.3 °F 69.1 °F 55% 30.32 in 10.0 mi Calm Calm - N/A   Mostly Cloudy
12:53 PM 86.0 °F 90.1 °F 69.1 °F 57% 30.32 in 10.0 mi North 4.6 mph - N/A   Mostly Cloudy
1:53 PM 90.0 °F 94.5 °F 69.1 °F 50% 30.30 in 10.0 mi Calm Calm - N/A   Partly Cloudy
2:53 PM 90.0 °F 94.5 °F 69.1 °F 50% 30.29 in 10.0 mi Calm Calm - N/A   Clear
3:53 PM 89.1 °F 95.0 °F 71.1 °F 55% 30.28 in 10.0 mi Variable 3.5 mph - N/A   Clear
4:53 PM 91.0 °F 96.6 °F 70.0 °F 50% 30.27 in 10.0 mi Variable 3.5 mph - N/A   Clear
5:53 PM 91.0 °F 98.2 °F 72.0 °F 53% 30.27 in 10.0 mi Calm Calm - N/A   Overcast
6:53 PM 90.0 °F 95.4 °F 70.0 °F 52% 30.27 in 10.0 mi NE 5.8 mph - N/A   Partly Cloudy
7:53 PM 88.0 °F 93.8 °F 71.1 °F 57% 30.26 in 10.0 mi Calm Calm - N/A   Clear
8:53 PM 80.1 °F 85.8 °F 77.0 °F 90% 30.26 in 10.0 mi Calm Calm - N/A   Clear
9:53 PM 75.9 °F - 73.9 °F 94% 30.27 in 10.0 mi Calm Calm - N/A   Clear
10:53 PM 73.9 °F - 73.0 °F 97% 30.29 in 10.0 mi Calm Calm - N/A   Clear
11:53 PM 73.0 °F - 72.0 °F 96% 30.29 in 9.0 mi Calm Calm - N/A   Clear